Volver al catálogo

CZ-2C DEB

ActivoSSO
NORAD 40266·DEBRIS·🇨🇳 China

Lanzado Sep 28, 2014 desde Jiuquan Satellite Launch Center

Loading…

Próximos Pases (próximas 24 horas)

TLE

ActualizadoSource: Space-Track

Época: Sep 13, 2026, 17:23 UTC

1 40266U 14059F   26256.72494901  .00001565  00000-0  50064-3 0  9999
2 40266  98.3463 162.6510 0159698 317.1337  41.7488 14.33994514621360

Sigue CZ-2C DEB en tiempo real con AllMySat

Download on the App Store